Flag for Qatar Weather past 2 weeks in Al Khor, Qatar

Now
64 °F

Clear.


Feels Like: 64 °F
Forecast: 66 / 78 °F
Wind: 5 mph from Northwest

Location: Doha International Airport

Current Time: Mar 3, 2015 at 6:44:42 AM

Latest Report: Mar 3, 2015 at 6:00 AM


Visibility: 4 mi

Pressure: 29.98 "Hg

Humidity: 88%

Dew point: 61 °F

Location of Al KhorLocation

Historic Weather in Al Khor — Graph

°F

Al Khor temperature yesterday

Maximum temperature yesterday: 84 °F (at 12:30 PM)
Minimum temperature yesterday: 59 °F (at 6:00 AM)
Average temperature yesterday: 71 °F

Past Weeks' High & Low Weather Summary

 TemperatureHumidityPressure
High91 °F (Feb 20, 2:00 PM)94% (Feb 20, 12:00 AM)30.21 "Hg (Feb 20, 12:00 AM)
Low55 °F (Feb 24, 3:00 AM)15% (Mar 2, 12:30 PM)29.56 "Hg (Feb 20, 3:30 PM)
Average69 °F58%29.97 "Hg
* Reported Feb 16 5:00 AM — Mar 3 5:00 AM, Al Khor, Weather by CustomWeather, © 2015

Note: Actual official high and low records may vary slightly from our data, if they occured in-between our weather recording intervals... More about our weather records

Advertising

Al Khor weather history for previous 24 hours

 ConditionsComfort  
Time TempWeatherWind HumidityBarometerVisibility
5:00 AM
Tue, Mar 3
64 °FClear.3 mph88%29.95 "Hg6 mi
4:00 AM64 °FClear.9 mph83%29.95 "Hg10 mi
3:00 AM66 °FClear.9 mph78%29.95 "Hg10 mi
2:00 AM66 °FClear.8 mph83%29.98 "Hg10 mi
1:00 AM68 °FClear.9 mph88%29.98 "Hg10 mi
12:00 AM68 °FClear.10 mph88%29.98 "Hg10 mi
11:00 PM
Mon, Mar 2
68 °FClear.14 mph83%29.98 "Hg10 mi
10:00 PM68 °FClear.7 mph83%29.98 "Hg10 mi
9:00 PM70 °FClear.6 mph83%29.98 "Hg10 mi
8:30 PM70 °FClear.8 mph78%29.95 "Hg10 mi
8:00 PM70 °FClear.7 mph73%29.95 "Hg10 mi
7:30 PM70 °FClear.5 mph73%29.95 "Hg10 mi
7:00 PM70 °FClear.6 mph69%29.92 "Hg10 mi
6:00 PM72 °FClear.1 mph73%29.92 "Hg10 mi
5:30 PM73 °FSunny.7 mph61%29.89 "Hg10 mi
5:00 PM73 °FSunny.6 mph61%29.89 "Hg10 mi
4:30 PM75 °FSunny.9 mph54%29.89 "Hg10 mi
3:30 PM75 °FSunny.10 mph47%29.89 "Hg10 mi
3:00 PM77 °FSunny.10 mph47%29.89 "Hg10 mi
2:00 PM79 °FSunny.12 mph39%29.89 "Hg10 mi
1:30 PM82 °FSunny.10 mph37%29.89 "Hg10 mi
1:00 PM84 °FSunny.6 mph15%29.89 "Hg10 mi
12:30 PM84 °FPassing clouds.6 mph15%29.92 "HgN/A
12:00 PM82 °FPassing clouds.8 mph17%29.92 "HgN/A
11:00 AM81 °FPassing clouds.7 mph21%29.95 "HgN/A
10:30 AM79 °FPassing clouds.5 mph24%29.95 "HgN/A
10:00 AM77 °FPassing clouds.5 mph22%29.98 "HgN/A
9:00 AM73 °FPassing clouds.8 mph27%29.98 "HgN/A
8:00 AM70 °FPassing clouds.5 mph35%29.95 "HgN/A
7:00 AM64 °FSunny.1 mph78%29.92 "Hg10 mi
6:30 AM61 °FSunny.1 mph88%29.92 "Hg10 mi
6:00 AM59 °FSunny.2 mph88%29.89 "Hg10 mi
Weather by CustomWeather, © 2015

See weather overviewHow to use our weather pages